Regional Weather Roundup
Issued by NWS

Home | Current Version | Previous Version | Text Only | Print | Product List | Glossary On
Versions: 1 2 3 4 5 6 7 8 9 10 11 12 13 14 15 16 17 18 19 20 21 22 23 24 25 26 27 28 29 30 31 32 33 34 35 36 37 38 39 40 41 42 43 44 45 46 47 48 49 50
000
ASUS43 KMPX 251001
RWRMN
WEATHER ROUNDUP FOR MINNESOTA
NATIONAL WEATHER SERVICE TWIN CITIES/CHANHASSEN MN
500 AM CDT SUN JUN 25 2017


NOTE: "FAIR" INDICATES FEW OR NO CLOUDS BELOW 12,000 FEET WITH NO
SIGNIFICANT WEATHER AND/OR OBSTRUCTIONS TO VISIBILITY. N/A MEANS
CURRENT SKY AND/OR WEATHER CONDITIONS ARE NOT AVAILABLE.

MNZ060>063-068>070-251100-
   Twin Cities Metro

CITY           SKY/WX    TMP DP  RH WIND       PRES   REMARKS
TWIN CITIES    CLOUDY    56  47  71 NW10      30.08R
ST PAUL        CLOUDY    56  48  74 NW17      30.08R
CRYSTAL        CLOUDY    55  46  71 NW10      30.07R
BLAINE         CLOUDY    55  48  76 NW12      30.08R
LAKEVILLE        N/A     54  46  76 W5        30.08S
EDEN PRAIRIE   CLOUDY    56  47  71 NW13      30.08R
SOUTH ST PAUL  CLOUDY    56  47  70 NW10G17   30.07S
LAKE ELMO      CLOUDY    54  48  82 NW12      30.08R
$$
MNZ001>005-007-008-013>017-022>024-027-028-251100-
   Northwest Minnesota

CITY           SKY/WX    TMP DP  RH WIND       PRES   REMARKS
BEMIDJI        RAIN      49  48  97 NW10      30.11R
HALLOCK        CLEAR     39  37  93 NW7       30.19R
ROSEAU         MOCLDY    46  43  87 NW6       30.14S
WARROAD        CLOUDY    48  45  87 NW5       30.14R
CROOKSTON      CLEAR     43  39  87 NW7       30.19R
FOSSTON        CLOUDY    46  45  93 NW9       30.16R
DETROIT LAKES  MOCLDY    46  45  93 NW15      30.17R
MOORHEAD       CLEAR     46  41  81 NW9       30.20R
PARK RAPIDS    CLOUDY    51  46  83 NW13      30.11R
MAHNOMEN       CLOUDY    47  44  90 NW9       30.16R
$$
MNZ006-009>011-018-025>026-251100-
   North Central Minnesota

CITY           SKY/WX    TMP DP  RH WIND       PRES   REMARKS
BAUDETTE       LGT RAIN  50  48  93 NW10      30.11R
FLAG ISLAND    CLOUDY    52  48  87 N12       30.11R
INTL FALLS     LGT RAIN  51  49  92 NW8       30.06R
WASKISH        RAIN      50  48  93 NW13G18   30.10R
BIG FORK       LGT RAIN  52  50  93 N5        30.05S
LONGVILLE      DRIZZLE   54  52  94 NW7       30.06R
GRAND RAPIDS   CLOUDY    53  51  93 N5        30.05R
CRANE LAKE     CLOUDY    52  50  93 NW6       30.04R
ORR            CLOUDY    52  48  87 NW5       30.01R
COOK           CLOUDY    52  52 100 CALM      30.03R
WALKER         HVY RAIN  49  48  97 NW13      30.09R
$$
MNZ012-019>021-037-251100-
   Northeast Minnesota

CITY           SKY/WX    TMP DP  RH WIND       PRES   REMARKS
DULUTH         CLOUDY    52  51  97 NW8       30.00R
ELY            CLOUDY    54  52  94 CALM      30.00R
HIBBING        CLOUDY    52  51  97 N6        30.02R
EVELETH        CLOUDY    54  48  82 CALM      30.02R
DULUTH HARBOR  CLOUDY    57  54  88 W9        30.01R
TWO HARBORS    CLOUDY    57  52  82 CALM      29.97S
SILVER BAY     CLOUDY    55  52  88 CALM      29.96S
GRAND MARAIS     N/A     56  51  84 N10G21    29.94R
G MARAIS ARPRT CLOUDY    48  46  93 N8        29.98S
$$
MNZ029>031-032-039>041-046>048-054>057-064-251100-
   West Central Minnesota

CITY           SKY/WX    TMP DP  RH WIND       PRES   REMARKS
FERGUS FALLS   CLEAR     46  45  93 NW10      30.17R
WHEATON        CLEAR     48  39  71 W10       30.22R
MORRIS         MOCLDY    52  45  76 NW13      30.17R
ALEXANDRIA     CLOUDY    51  47  86 NW16      30.15R
ELBOW LAKE     MOCLDY    48  45  88 NW10      30.18R
WADENA         CLOUDY    48  46  93 NW10G16   30.12R
GLENWOOD       CLOUDY    52  46  82 NW16G25   30.14R
APPLETON       PTCLDY    48  45  87 W12       30.19R
BENSON         CLOUDY    52  43  71 N14G20    30.18S
ORTONVILLE     CLEAR     52  41  66 NW13      30.20R
MADISON        CLEAR     52  45  76 NW9       30.20R
WILLMAR        CLOUDY    52  46  82 NW14      30.16R
$$
MNZ033>034-036-042>043-049>051-058-059-251100-
   Central Minnesota

CITY           SKY/WX    TMP DP  RH WIND       PRES   REMARKS
ST CLOUD       CLOUDY    52  48  86 NW14      30.09R
SAUK CENTRE    CLOUDY    50  48  92 NW10      30.12S
PAYNESVILLE    CLOUDY    51  46  82 NW9G18    30.13R
AITKIN         CLOUDY    52  50  93 W5        30.03S
PINE RIVER     LGT RAIN  52  52 100 NW8G17    30.10S
BRAINERD       LGT RAIN  52  50  93 NW12      30.07S
STAPLES        CLOUDY    48  48 100 NW15      30.10R
LONG PRAIRIE   CLOUDY    50  46  87 W13G18    30.12R
LITTLE FALLS   CLOUDY    52  46  82 W9        30.09R
LITCHFIELD     CLOUDY    54  48  82 NW13G23   30.12S
BUFFALO        CLOUDY    53  48  82 NW9       30.11R
MAPLE LAKE     CLOUDY    54  49  85 NW13G18   30.11R
HUTCHINSON     CLOUDY    53  48  83 W10G18    30.13R
$$
MNZ037-044-045-052-053-251100-
   East Central Minnesota

CITY           SKY/WX    TMP DP  RH WIND       PRES   REMARKS
PRINCETON      CLOUDY    54  48  82 W7        30.08S
MORA           CLOUDY    50  46  87 W7        30.06S
CAMBRIDGE      CLOUDY    55  46  71 W8        30.05S
RUSH CITY      MOCLDY    50  46  87 W3        30.05S
MOOSE LAKE     CLOUDY    52  50  93 W5        30.01S
HINCKLEY       CLOUDY    54  50  87 W6        30.04R
CLOQUET        CLOUDY    52  48  87 W6        30.01S
MCGREGOR       CLOUDY    54  52  94 W5        30.04S
$$
MNZ071>073-080-081-089-090-097-098-251100-
   Southwest Minnesota

CITY           SKY/WX    TMP DP  RH WIND       PRES   REMARKS
MONTEVIDEO     PTCLDY    50  43  76 N8        30.19R
GRANITE FALLS  CLEAR     51  45  79 W9        30.20R
CANBY          CLEAR     48  42  79 CALM      30.22R
MARSHALL       CLEAR     48  43  82 NW10      30.20R
REDWOOD FALLS  CLOUDY    52  43  71 NW13      30.16R
OLIVIA         CLOUDY    50  43  76 NW13      30.15R
PIPESTONE      CLEAR     50  41  71 N8G16     30.22R
WINDOM         PTCLDY    52  43  71 NW15G24   30.18R
WORTHINGTON    CLEAR     48  45  89 W10       30.21R
JACKSON        CLEAR     50  45  81 W10G16    30.18R
TRACY          CLEAR     50  43  77 NW10      30.21R
SLAYTON        CLEAR     48  44  85 NW12      30.21R
$$
MNZ065>067-074>077-082>085-091>093-251100-
   South Central Minnesota

CITY           SKY/WX    TMP DP  RH WIND       PRES   REMARKS
MANKATO        CLOUDY    53  46  77 NW14      30.13R
NEW ULM        MOCLDY    52  45  76 NW20G28   30.14R
ST JAMES       CLOUDY    54  45  71 W10       30.16R
FAIRMONT       MOCLDY    52  46  80 NW12      30.16R
GLENCOE        CLOUDY    55  50  85 W9        30.11R
FARIBAULT      CLOUDY    54  48  82 W10G16    30.10S
OWATONNA       MOCLDY    52  46  82 W9        30.11R
WASECA         CLOUDY    52  46  82 W9        30.13R
ALBERT LEA     CLEAR     52  46  82 W7        30.13R
$$
MNZ078>079-086>088-094>096-251100-
   Southeast Minnesota

CITY           SKY/WX    TMP DP  RH WIND       PRES   REMARKS
ROCHESTER      CLOUDY    50  48  93 W10       30.10R
RED WING       CLOUDY    54  48  82 W3        30.06S
STANTON        CLOUDY    55  49  82 W5        30.08R
DODGE CENTER   MOCLDY    52  46  82 W7        30.10S
WINONA         CLEAR     52  46  82 NW5       30.07S
AUSTIN         CLEAR     50  45  81 NW8       30.11R
PRESTON        PTCLDY    48  44  88 W9        30.10R
$$
ABBREVIATIONS USED IN REMARKS
   TC - TEMPERATURES IN CELSIUS
  WCI - WIND CHILL INDEX
   HX - HEAT INDEX
  VSB - VISIBILITY
$$




USA.gov is the U.S. government's official web portal to all federal, state and local government web resources and services.